Location: Poughquag
(41.6090°N, 73.6820°W)
Time: 11:43:39
(UTC-04:00)

Tiros 1 - Pass Details

Date: 29 May 2020
Orbit: 630 x 664 km, 48.4° (Epoch: 06 July)

Event Time Altitude Azimuth Distance (km) Brightness Sun altitude
Rises 14:26:57 0° 246° (WSW) 2,963 11.0 61.9°
Reaches altitude 10° 14:29:18 10° 247° (WSW) 2,048 10.3 61.6°
Maximum altitude 14:34:02 76° 333° (NNW) 668 8.4 60.9°
Drops below altitude 10° 14:38:43 10° 60° (ENE) 2,033 9.5 60.1°
Sets 14:41:03 0° 62° (ENE) 2,938 10.2 59.8°
